Hourly Weather Jufureh

Today, 24 November, Tuesday

Time Temperature Precipitation Wind Pressure Humidity
00:00 +28°C° 0 mm 1 mps 757 mmHg 38%
01:00 +28°C° 0 mm 1 mps 756 mmHg 36%
02:00 +27°C° 0 mm 2 mps 756 mmHg 34%
03:00 +27°C° 0 mm 2 mps 756 mmHg 33%
04:00 +26°C° 0 mm 2 mps 756 mmHg 31%
05:00 +26°C° 0 mm 2 mps 756 mmHg 32%
06:00 +27°C° 0 mm 3 mps 757 mmHg 29%
07:00 +28°C° 0 mm 4 mps 757 mmHg 26%
08:00 +29°C° 0 mm 5 mps 758 mmHg 24%
09:00 +32°C° 0 mm 5 mps 758 mmHg 22%
10:00 +35°C° 0 mm 5 mps 758 mmHg 19%
11:00 +37°C° 0 mm 5 mps 757 mmHg 17%
12:00 +39°C° 0 mm 5 mps 757 mmHg 16%
13:00 +40°C° 0 mm 4 mps 756 mmHg 16%
14:00 +40°C° 0 mm 3 mps 755 mmHg 15%
15:00 +39°C° 0 mm 3 mps 755 mmHg 17%
16:00 +37°C° 0 mm 2 mps 755 mmHg 19%
17:00 +35°C° 0 mm 1 mps 755 mmHg 21%
18:00 +33°C° 0 mm 1 mps 756 mmHg 23%
19:00 +32°C° 0 mm 1 mps 757 mmHg 25%
20:00 +30°C° 0 mm 1 mps 757 mmHg 27%
21:00 +29°C° 0 mm 1 mps 757 mmHg 29%
22:00 +28°C° 0 mm 1 mps 757 mmHg 32%
23:00 +27°C° 0 mm 1 mps 757 mmHg 34%

Tomorrow, 25 November, Wednesday

Time Temperature Precipitation Wind Pressure Humidity
00:00 +27°C° 0 mm 1 mps 757 mmHg 32%
01:00 +27°C° 0 mm 2 mps 757 mmHg 30%
02:00 +26°C° 0 mm 2 mps 756 mmHg 27%
03:00 +26°C° 0 mm 2 mps 756 mmHg 27%
04:00 +25°C° 0 mm 3 mps 757 mmHg 26%
05:00 +24°C° 0 mm 3 mps 757 mmHg 25%
06:00 +26°C° 0 mm 4 mps 757 mmHg 23%
07:00 +27°C° 0 mm 4 mps 757 mmHg 21%
08:00 +28°C° 0 mm 5 mps 758 mmHg 19%
09:00 +30°C° 0 mm 5 mps 757 mmHg 17%
10:00 +34°C° 0 mm 4 mps 757 mmHg 15%
11:00 +36°C° 0 mm 4 mps 757 mmHg 13%
12:00 +37°C° 0 mm 4 mps 757 mmHg 13%
13:00 +38°C° 0 mm 3 mps 756 mmHg 13%
14:00 +39°C° 0 mm 3 mps 755 mmHg 13%
15:00 +37°C° 0 mm 3 mps 755 mmHg 15%
16:00 +36°C° 0 mm 3 mps 755 mmHg 16%
17:00 +35°C° 0 mm 3 mps 755 mmHg 18%
18:00 +33°C° 0 mm 4 mps 756 mmHg 26%
19:00 +30°C° 0 mm 4 mps 756 mmHg 34%
20:00 +28°C° 0 mm 5 mps 757 mmHg 42%
21:00 +27°C° 0 mm 4 mps 757 mmHg 37%
22:00 +27°C° 0 mm 4 mps 757 mmHg 32%
23:00 +27°C° 0 mm 4 mps 757 mmHg 28%

Day after tomorrow, 26 November, Thursday

Time Temperature Precipitation Wind Pressure Humidity
00:00 +26°C° 0 mm 4 mps 757 mmHg 25%
01:00 +25°C° 0 mm 4 mps 756 mmHg 21%
02:00 +23°C° 0 mm 4 mps 756 mmHg 18%
03:00 +23°C° 0 mm 4 mps 756 mmHg 18%
04:00 +23°C° 0 mm 4 mps 756 mmHg 18%
05:00 +22°C° 0 mm 4 mps 756 mmHg 17%
06:00 +23°C° 0 mm 4 mps 756 mmHg 17%
07:00 +25°C° 0 mm 4 mps 757 mmHg 17%
08:00 +26°C° 0 mm 5 mps 757 mmHg 16%
09:00 +28°C° 0 mm 4 mps 757 mmHg 15%
10:00 +32°C° 0 mm 4 mps 757 mmHg 14%
11:00 +34°C° 0 mm 4 mps 757 mmHg 13%
12:00 +35°C° 0 mm 4 mps 756 mmHg 12%
13:00 +36°C° 0 mm 3 mps 756 mmHg 12%
14:00 +37°C° 0 mm 3 mps 755 mmHg 11%
15:00 +36°C° 0 mm 3 mps 755 mmHg 14%
16:00 +34°C° 0 mm 3 mps 755 mmHg 17%
17:00 +33°C° 0 mm 3 mps 754 mmHg 20%
18:00 +30°C° 0 mm 3 mps 755 mmHg 26%
19:00 +29°C° 0 mm 3 mps 756 mmHg 32%
20:00 +27°C° 0 mm 3 mps 756 mmHg 39%
21:00 +27°C° 0 mm 3 mps 756 mmHg 34%
22:00 +26°C° 0 mm 3 mps 756 mmHg 29%
23:00 +26°C° 0 mm 3 mps 756 mmHg 25%

27 November, Friday

Time Temperature Precipitation Wind Pressure Humidity
00:00 +25°C° 0 mm 4 mps 756 mmHg 23%
01:00 +25°C° 0 mm 4 mps 755 mmHg 21%
02:00 +23°C° 0 mm 4 mps 755 mmHg 19%
03:00 +22°C° 0 mm 4 mps 755 mmHg 19%
04:00 +22°C° 0 mm 4 mps 755 mmHg 20%
05:00 +21°C° 0 mm 4 mps 756 mmHg 20%
06:00 +22°C° 0 mm 4 mps 756 mmHg 20%
07:00 +23°C° 0 mm 5 mps 757 mmHg 20%
08:00 +25°C° 0 mm 5 mps 757 mmHg 20%
09:00 +28°C° 0 mm 5 mps 757 mmHg 18%
10:00 +30°C° 0 mm 5 mps 757 mmHg 16%
11:00 +34°C° 0 mm 5 mps 757 mmHg 14%
12:00 +35°C° 0 mm 4 mps 756 mmHg 13%
13:00 +36°C° 0 mm 3 mps 755 mmHg 12%
14:00 +37°C° 0 mm 3 mps 755 mmHg 12%
15:00 +35°C° 0 mm 3 mps 755 mmHg 16%
16:00 +34°C° 0 mm 4 mps 755 mmHg 21%
17:00 +32°C° 0 mm 4 mps 755 mmHg 25%
18:00 +30°C° 0 mm 4 mps 755 mmHg 37%
19:00 +28°C° 0 mm 4 mps 756 mmHg 48%
20:00 +26°C° 0 mm 4 mps 756 mmHg 60%
21:00 +25°C° 0 mm 4 mps 757 mmHg 58%
22:00 +23°C° 0 mm 4 mps 757 mmHg 56%
23:00 +22°C° 0 mm 4 mps 757 mmHg 54%

28 November, Saturday

Time Temperature Precipitation Wind Pressure Humidity
00:00 +22°C° 0 mm 4 mps 757 mmHg 52%
01:00 +21°C° 0 mm 4 mps 756 mmHg 50%
02:00 +21°C° 0 mm 4 mps 756 mmHg 48%
03:00 +21°C° 0 mm 4 mps 756 mmHg 46%
04:00 +20°C° 0 mm 4 mps 756 mmHg 43%
05:00 +20°C° 0 mm 4 mps 756 mmHg 41%
06:00 +21°C° 0 mm 4 mps 757 mmHg 38%
07:00 +22°C° 0 mm 5 mps 757 mmHg 35%
08:00 +23°C° 0 mm 5 mps 758 mmHg 31%
09:00 +27°C° 0 mm 5 mps 758 mmHg 27%
10:00 +30°C° 0 mm 5 mps 757 mmHg 23%
11:00 +33°C° 0 mm 5 mps 757 mmHg 19%
12:00 +34°C° 0 mm 4 mps 757 mmHg 18%
13:00 +35°C° 0 mm 3 mps 756 mmHg 17%
14:00 +37°C° 0 mm 3 mps 755 mmHg 16%
15:00 +35°C° 0 mm 3 mps 755 mmHg 19%
16:00 +34°C° 0 mm 4 mps 755 mmHg 23%
17:00 +32°C° 0 mm 4 mps 755 mmHg 27%
18:00 +30°C° 0 mm 4 mps 756 mmHg 39%
19:00 +28°C° 0 mm 5 mps 756 mmHg 51%
20:00 +26°C° 0 mm 5 mps 757 mmHg 63%
21:00 +25°C° 0 mm 5 mps 757 mmHg 58%
22:00 +25°C° 0 mm 4 mps 757 mmHg 54%
23:00 +23°C° 0 mm 4 mps 757 mmHg 50%

29 November, Sunday

Time Temperature Precipitation Wind Pressure Humidity
00:00 +23°C° 0 mm 4 mps 757 mmHg 52%
01:00 +22°C° 0 mm 4 mps 756 mmHg 55%
02:00 +21°C° 0 mm 4 mps 756 mmHg 57%
03:00 +21°C° 0 mm 4 mps 756 mmHg 56%
04:00 +21°C° 0 mm 3 mps 756 mmHg 55%
05:00 +20°C° 0 mm 3 mps 756 mmHg 53%
06:00 +22°C° 0 mm 3 mps 756 mmHg 46%
07:00 +23°C° 0 mm 4 mps 757 mmHg 39%
08:00 +25°C° 0 mm 4 mps 757 mmHg 32%
09:00 +28°C° 0 mm 3 mps 757 mmHg 28%
10:00 +30°C° 0 mm 3 mps 757 mmHg 23%
11:00 +34°C° 0 mm 3 mps 757 mmHg 18%
12:00 +35°C° 0 mm 3 mps 756 mmHg 17%
13:00 +36°C° 0 mm 3 mps 756 mmHg 17%
14:00 +37°C° 0 mm 3 mps 755 mmHg 16%
15:00 +35°C° 0 mm 4 mps 755 mmHg 22%
16:00 +33°C° 0 mm 5 mps 755 mmHg 28%
17:00 +30°C° 0 mm 5 mps 755 mmHg 35%
18:00 +29°C° 0 mm 5 mps 755 mmHg 44%
19:00 +28°C° 0 mm 5 mps 756 mmHg 53%
20:00 +26°C° 0 mm 5 mps 756 mmHg 62%
21:00 +26°C° 0 mm 5 mps 756 mmHg 58%
22:00 +25°C° 0 mm 5 mps 756 mmHg 55%
23:00 +23°C° 0 mm 4 mps 757 mmHg 51%
Show more